Regional Weather Roundup
Issued by NWS

Home | Current Version | Previous Version | Text Only | Print | Product List | Glossary On
Versions: 1 2 3 4 5 6 7 8 9 10 11 12 13 14 15 16 17 18 19 20 21 22 23 24 25 26 27 28 29 30 31 32 33 34 35 36 37 38 39 40 41 42 43 44 45 46 47 48 49 50
000
ASUS43 KDTX 241301
RWRMI
MICHIGAN HOURLY REGIONAL WEATHER ROUNDUP
NATIONAL WEATHER SERVICE DETROIT/PONTIAC MI
900 AM EDT TUE MAY 24 2016

NOTE: "FAIR" INDICATES FEW OR NO CLOUDS BELOW 12,000 FEET WITH NO
SIGNIFICANT WEATHER AND/OR OBSTRUCTION TO VISIBILITY.

MIZ047>049-052>055-059>063-066>070-074>076-081>083-241400-
SOUTHEAST LOWER MICHIGAN

CITY           SKY/WX    TMP DP  RH WIND       PRES   REMARKS
ADRIAN         SUNNY     61  47  59 SW5       30.07R
ALMA           SUNNY     64  42  44 SW7       30.01S
ANN ARBOR      SUNNY     64  51  62 W3        30.06R
BAD AXE        SUNNY     66  41  39 SW5       30.02S
CARO           SUNNY     64  45  49 S5        30.02S
DETROIT CITY   SUNNY     67  48  50 W6        30.06R
DETROIT        MOSUNNY   65  52  62 S5        30.06R
FLINT          SUNNY     69  42  37 SW7       30.04R
GROSSE ILE     SUNNY     63  54  72 S3        30.05R
HILLSDALE      SUNNY     69  35  28 W7        30.06S
HOWELL         SUNNY     65  43  44 SW5       30.05R

CITY           SKY/WX    TMP DP  RH WIND       PRES   REMARKS
JACKSON        SUNNY     67  43  41 W7        30.05R
LAMBERTVILLE   SUNNY     68  49  51 W3        30.07R
LANSING        SUNNY     66  43  43 SW8       30.03S
LAPEER         FAIR      65  46  50 SW3       30.05R
MASON          SUNNY     66  43  43 S5        30.04S
MONROE         SUNNY     65  51  62 SW5       30.06R
PONTIAC        SUNNY     66  46  48 W6        30.05R
PORT HOPE        N/A     68  39  34 SW8       29.98S
PORT HURON     SUNNY     63  50  63 SW3       30.04S
TRI CITIES     SUNNY     66  41  40 SW10      30.01S
MIDLAND        FAIR      63  45  50 SW5       29.99S
TROY           SUNNY     66  45  47 SW6       30.07R
SAGINAW HB     SUNNY     64  37  36 SW10      30.01R
$$
MIZ043>046-050>051-056>058-064>065-071>073-077>080-241400-
SOUTHWEST LOWER MICHIGAN

CITY           SKY/WX    TMP DP  RH WIND       PRES   REMARKS
BATTLE CREEK   SUNNY     66  44  45 SW12      30.04S
BENTON HARBOR  CLOUDY    70  48  45 SW7       30.02R
BIG RAPIDS     SUNNY     67  48  51 SW6       29.99R
COLDWATER      SUNNY     66  44  45 W6        30.05S
FREMONT        FAIR      63  47  55 SW5       30.00R
HOLLAND        SUNNY     70  46  42 SW15      30.01R
GRAND RAPIDS   PTSUNNY   70  44  39 SW8       30.02R
IONIA          FAIR      67  40  38 SW10      30.01R
KALAMAZOO      SUNNY     65  44  46 SW7       30.03F
LUDINGTON      SUNNY     67  47  49 SW7       29.97R
MARSHALL       SUNNY     67  45  44 SW5       30.04S
MOUNT PLEASANT SUNNY     68  45  43 W6        29.99R
MUSKEGON       PTSUNNY   66  45  46 SW13      30.00R
SOUTH HAVEN    MOSUNNY   72  45  37 SW10      30.01S
$$
MIZ016>042-241400-
NORTHERN LOWER MICHIGAN

CITY           SKY/WX    TMP DP  RH WIND       PRES   REMARKS
ALPENA         SUNNY     70  43  37 SW5       29.95F
BEAVER ISLAND  MOSUNNY   64  41  43 SW14G20   29.93R
BELLAIRE       SUNNY     69  42  37 SW5       29.95R
CADILLAC       SUNNY     65  43  45 SW9       29.98R
CHARLEVOIX     MOSUNNY   69  40  35 S9        29.95R
FRANKFORT      SUNNY     68  45  43 S5        29.95R
GAYLORD        SUNNY     70  39  32 SW15      29.96S
GRAYLING       SUNNY     70  42  36 SW7       29.97R
HARBOR SPRINGS SUNNY     69  41  36 SW3       29.93S
HOUGHTON LAKE  SUNNY     66  45  46 SW10      29.99R
MANISTEE       SUNNY     66  45  45 S5        29.97R
OSCODA         SUNNY     66  44  44 SW8G17    29.97S
PELLSTON       SUNNY     72  39  30 VRB7      29.92S
ROGERS CITY    SUNNY     71  39  31 SW5       29.93F
TRAVERSE CITY  PTSUNNY   71  42  35 SW7       29.93R
$$
MIZ007>008-015-241400-
EASTERN UPPER MICHIGAN

CITY           SKY/WX    TMP DP  RH WIND       PRES   REMARKS
KINROSS          N/A     63  43  48 SW3       29.92S
MACKINAC ISLAN SUNNY     64  41  42 CALM      29.92R
NEWBERRY       SUNNY     62  45  53 S10       29.90R
S. S. MARIE    SUNNY     60  44  55 SE5       29.91F
MUNISING         N/A     71  51  49 NW8       29.87R
$$
MIZ004>006-011>014-085-241400-
CENTRAL UPPER MICHIGAN

CITY           SKY/WX    TMP DP  RH WIND       PRES   REMARKS
MANISTIQUE     SUNNY     55  48  76 S5        29.90R
ESCANABA       CLOUDY    66  50  55 W3        29.89S
MENOMINEE      CLOUDY    64  50  59 SW6       29.91S
SAWYER-GWINN   PTSUNNY   61  54  77 NW3       29.89S
$$
MIZ001>003-009>011-084-241400-
WESTERN UPPER MICHIGAN

CITY           SKY/WX    TMP DP  RH WIND       PRES   REMARKS
IRON MOUNTAIN  CLOUDY    67  57  70 CALM      29.89S
HOUGHTON       CLOUDY    63  57  81 W5        29.87R
COPPER HARBOR    N/A     56  55  97 E3        29.86R
IRONWOOD       CLOUDY    61  59  94 CALM      29.84F
$$

ABBREVIATIONS USED IN REMARKS
   TC - TEMPERATURE IN CELSIUS
  WCI - WIND CHILL INDEX
   HX - HEAT INDEX
  VSB - VISIBILITY




USA.gov is the U.S. government's official web portal to all federal, state and local government web resources and services.